Wind_Speed
13 14 16 16 16 16 15 14 13 11 9 7 6 5 4 3 2 1 1 2 3 4 4 5 5 6 7 7 6 5 4 4 4 3 3 5 6 6 6 5 5 5
12 14 15 16 16 15 15 14 13 11 10 8 7 6 5 4 4 4 4 4 5 5 5 6 7 7 7 7 6 5 4 4 3 3 3 4 6 6 6 5 4 4
11 13 14 15 16 16 15 15 14 13 11 11 10 9 8 7 7 6 6 6 6 7 7 7 8 8 7 6 5 4 4 4 3 4 4 4 5 6 6 5 3 2
10 11 13 14 15 16 16 15 15 14 13 13 12 11 10 9 9 9 8 8 8 8 8 8 8 7 5 4 3 3 3 3 3 4 5 5 5 6 6 6 5 3
10 11 11 13 13 14 15 15 15 15 15 14 14 13 13 12 11 11 10 10 9 9 9 8 7 6 4 3 2 1 2 2 3 4 4 4 5 5 5 6 6 5
11 11 11 11 11 12 12 13 14 14 15 15 14 14 14 13 12 11 10 9 9 9 8 6 5 4 3 2 2 1 0 1 2 2 3 3 3 4 4 4 5 5
11 11 11 11 11 11 10 11 12 13 13 13 13 12 12 12 11 10 9 8 8 7 7 6 5 4 4 3 3 2 2 1 1 1 1 1 2 2 3 3 3 3
13 12 12 12 12 12 11 11 11 11 11 10 10 10 10 10 10 9 8 8 8 8 7 7 6 5 5 5 4 4 3 3 3 3 2 2 2 1 1 2 2 2
15 14 14 13 13 13 13 13 12 12 11 11 10 10 9 9 9 9 8 8 8 9 8 7 7 6 6 6 5 5 5 5 6 6 5 5 4 4 3 3 3 3
16 16 16 15 15 14 14 14 14 13 12 12 11 11 10 10 10 9 10 9 9 9 9 8 8 8 7 7 7 7 7 7 7 8 8 7 7 7 6 5 5 5
18 18 17 17 17 16 15 15 14 14 13 13 13 13 12 12 11 11 11 11 11 11 10 10 9 9 9 9 8 8 9 9 9 9 9 9 9 9 8 8 8 7
20 19 19 18 18 18 17 17 16 16 15 14 14 14 13 12 12 12 12 12 12 12 12 11 11 10 10 10 10 10 10 10 10 9 9 9 9 9 9 9 10 10
21 21 20 20 19 18 18 18 18 18 18 16 15 15 14 15 14 14 14 14 13 13 14 13 12 12 12 11 11 11 11 10 10 10 10 10 10 10 9 10 10 11
22 21 21 20 20 20 19 19 20 20 19 18 17 16 17 17 15 15 16 16 14 14 15 14 14 13 13 12 12 12 11 11 11 11 12 12 12 11 11 11 11 11
22 21 21 20 20 21 21 21 21 20 19 18 18 18 19 19 18 17 18 17 15 15 16 15 14 13 13 13 13 13 13 13 13 13 13 13 13 13 13 12 12 12
23 23 23 23 22 22 22 22 22 21 20 20 20 20 21 21 20 20 19 19 18 17 16 15 15 15 15 15 15 15 15 15 15 15 15 15 15 15 14 14 14 13
23 24 25 25 25 24 23 24 24 23 23 23 23 23 23 22 22 22 21 21 20 19 18 18 18 17 17 18 18 18 18 18 19 18 17 17 17 16 15 15 15 14
24 25 26 27 27 26 26 25 25 25 26 26 26 26 26 25 23 23 23 22 21 20 19 19 20 20 20 20 21 21 21 21 22 21 21 21 20 18 17 17 18 17
26 28 29 28 28 28 28 28 28 28 28 28 28 28 28 27 26 25 24 23 21 20 20 20 20 21 22 22 22 23 24 24 23 23 24 24 23 21 20 20 20 19
28 29 31 30 30 29 29 29 30 30 30 29 28 28 27 28 27 27 26 24 22 21 21 22 22 22 22 23 24 25 25 25 24 24 25 25 24 23 23 23 22 22
30 31 32 32 32 31 30 30 30 30 30 29 29 28 28 28 28 28 28 26 23 22 23 24 24 23 24 25 25 26 26 26 25 25 26 25 24 24 24 24 24 24
33 34 35 36 35 33 33 32 31 31 31 30 30 30 31 30 30 30 30 28 25 25 26 26 26 26 26 26 27 27 27 27 27 27 26 25 24 25 26 26 26 27
36 36 37 38 37 36 35 35 34 33 33 33 33 34 34 33 32 31 31 30 28 27 27 28 28 28 28 28 29 28 28 29 28 27 26 25 25 26 26 27 28 28
35 37 38 39 39 38 37 36 36 36 35 36 36 36 37 36 35 34 33 31 29 28 28 29 29 30 30 30 31 31 31 30 30 29 28 27 26 27 27 28 28 28
24 27 30 32 35 38 39 37 37 37 38 38 37 36 35 35 35 35 33 32 31 30 30 30 31 31 32 31 31 32 32 32 31 31 31 30 29 29 29 30 30 31
19 20 21 22 24 29 34 36 38 40 41 41 39 38 36 35 36 35 31 32 35 35 32 32 33 33 33 32 32 32 32 32 33 33 33 32 30 30 31 32 34 35
Wind_Direction
179 182 185 188 188 188 188 187 187 187 186 186 184 187 190 189 196 217 273 303 318 327 334 334 333 337 342 348 0 15 30 41 58 77 92 99 105 113 117 129 141 130
183 188 191 193 196 198 200 201 202 203 204 207 210 215 224 234 246 259 274 287 297 305 309 313 318 325 333 340 354 7 21 37 63 91 96 95 106 117 122 128 137 139
186 192 195 198 201 203 207 210 213 216 219 223 226 230 237 246 255 263 271 279 286 291 295 301 308 315 322 332 349 6 23 41 66 91 98 98 102 114 128 134 136 150
194 195 196 202 207 209 212 215 218 223 227 232 236 240 245 250 257 263 268 275 279 283 288 294 299 303 309 323 346 10 32 53 68 81 95 105 107 114 130 140 152 181
203 204 202 205 209 212 216 220 224 228 231 237 242 246 250 253 257 262 266 270 272 275 281 286 289 290 293 309 330 7 42 60 69 74 86 98 105 113 124 136 151 168
205 211 212 213 214 215 219 223 227 229 233 238 243 248 252 253 255 257 257 260 263 266 268 269 269 268 268 272 268 243 142 72 74 84 97 106 110 114 120 131 146 159
204 210 214 217 220 221 223 227 229 230 232 235 238 242 247 248 247 244 240 241 246 249 249 247 243 240 240 240 238 232 229 235 215 174 154 140 133 129 135 146 155 164
205 209 212 216 219 222 225 229 233 232 232 233 235 238 240 241 239 235 228 225 227 232 233 233 233 231 231 232 233 236 240 249 252 250 251 248 238 226 214 206 206 208
212 212 213 215 219 222 223 228 232 232 231 232 233 235 235 237 236 232 228 224 223 227 226 225 228 230 232 234 236 244 250 255 262 268 271 273 273 271 266 263 256 250
218 219 219 218 220 224 224 227 230 231 232 234 234 233 232 234 234 230 230 230 230 232 231 229 229 230 233 237 239 247 256 262 268 275 279 281 282 280 277 271 264 261
220 222 225 224 223 225 226 227 230 231 232 232 234 234 231 232 235 234 232 233 234 237 240 240 240 239 241 243 244 247 254 262 268 274 278 281 283 284 283 280 277 275
220 222 226 229 229 230 231 231 232 233 232 231 235 238 234 232 235 237 238 237 237 239 240 242 245 248 249 252 254 254 256 262 266 267 269 274 279 283 286 288 290 290
226 226 226 229 231 233 235 236 237 237 236 235 238 242 241 237 234 234 240 240 239 240 240 239 242 246 250 253 257 259 261 262 262 261 262 265 270 276 280 284 289 292
234 236 236 236 237 237 237 239 241 242 242 240 240 241 243 244 239 238 243 244 244 245 245 242 242 245 248 250 253 257 260 262 261 262 262 261 263 267 271 276 282 287
234 237 239 241 243 244 243 243 244 246 248 248 246 242 244 247 246 244 246 250 251 250 249 249 250 252 252 251 252 253 256 259 262 263 262 261 261 264 268 274 280 285
234 236 236 237 239 241 244 246 246 246 247 248 246 243 243 245 247 246 247 250 252 252 254 257 257 255 254 255 256 255 255 258 260 262 263 265 266 268 271 275 279 284
237 239 239 238 238 238 240 243 245 245 245 244 244 243 243 243 244 245 246 246 248 249 251 254 255 254 254 256 257 256 257 258 258 260 263 265 266 268 270 272 274 278
239 240 240 240 241 240 240 241 243 244 245 245 246 246 246 244 243 244 245 246 247 247 246 247 250 252 253 254 254 255 257 258 258 260 261 261 263 265 265 266 268 272
241 242 242 243 245 245 244 242 241 242 242 244 245 247 248 247 246 246 246 248 250 251 249 247 247 249 252 252 253 253 254 256 257 258 259 260 261 263 263 264 266 269
243 244 245 245 247 249 247 246 245 244 244 243 244 246 248 248 248 248 247 247 247 248 250 250 249 249 251 252 253 254 255 256 257 258 259 261 263 265 265 266 267 268
243 245 247 248 249 249 248 248 249 248 247 246 245 247 249 249 250 250 250 249 246 244 245 248 249 249 249 249 251 253 255 256 257 258 258 260 263 264 265 266 267 268
244 244 247 249 250 249 248 249 250 249 247 247 248 250 251 251 251 252 252 251 249 247 247 248 249 250 250 250 250 251 254 256 256 257 257 258 259 260 262 264 265 267
246 246 247 249 250 250 249 249 249 249 249 248 249 251 252 252 251 252 254 254 252 252 252 252 253 256 256 254 253 254 255 256 256 256 255 255 256 257 259 261 262 263
243 242 243 247 252 253 252 251 250 250 250 250 250 250 251 251 250 251 254 255 254 254 254 254 255 257 257 256 256 257 257 257 258 259 259 258 258 259 260 260 261 262
245 242 238 241 248 251 250 250 250 250 250 250 248 248 250 251 250 250 253 259 260 257 255 254 254 254 256 257 259 260 261 261 262 263 264 265 264 264 263 262 262 262
257 251 243 243 250 251 250 250 249 248 249 248 245 247 252 254 251 249 249 256 260 259 256 255 255 255 256 258 261 263 265 266 266 267 268 269 269 267 264 261 261 262
Height
5956 5957 5958 5960 5961 5962 5963 5964 5964 5965 5966 5967 5968 5969 5969 5970 5970 5970 5971 5971 5971 5971 5972 5972 5972 5972 5972 5972 5972 5972 5973 5973 5973 5972 5972 5972 5973 5973 5973 5972 5972 5972
5955 5957 5958 5959 5961 5962 5963 5964 5965 5966 5966 5967 5968 5969 5969 5969 5970 5970 5971 5971 5971 5971 5971 5971 5971 5971 5971 5972 5972 5972 5972 5972 5973 5972 5972 5972 5972 5972 5972 5972 5972 5972
5954 5956 5957 5959 5960 5961 5962 5963 5964 5965 5966 5967 5968 5968 5969 5969 5969 5970 5970 5971 5971 5971 5971 5971 5971 5971 5971 5971 5971 5971 5971 5972 5972 5972 5973 5973 5972 5973 5973 5972 5972 5972
5954 5955 5956 5957 5959 5960 5961 5962 5963 5964 5965 5966 5967 5967 5968 5968 5969 5969 5970 5970 5970 5970 5970 5970 5971 5971 5970 5970 5971 5971 5971 5971 5972 5972 5972 5973 5973 5973 5973 5973 5973 5972
5953 5954 5955 5956 5957 5958 5960 5961 5962 5963 5964 5965 5965 5966 5967 5967 5968 5968 5969 5969 5969 5970 5970 5970 5970 5970 5970 5970 5970 5970 5970 5971 5971 5972 5972 5972 5973 5973 5973 5973 5973 5973
5952 5953 5954 5955 5956 5957 5959 5959 5960 5961 5962 5963 5964 5965 5965 5966 5966 5967 5967 5968 5968 5969 5969 5969 5969 5969 5969 5969 5970 5970 5970 5970 5971 5971 5971 5972 5972 5973 5973 5973 5973 5973
5951 5952 5953 5954 5955 5956 5957 5958 5959 5960 5961 5961 5962 5963 5964 5965 5965 5965 5966 5967 5967 5967 5968 5968 5968 5969 5969 5969 5969 5969 5969 5970 5970 5970 5970 5971 5971 5971 5972 5972 5972 5972
5949 5950 5951 5952 5954 5955 5956 5957 5958 5959 5959 5960 5961 5962 5963 5963 5964 5964 5965 5965 5966 5966 5967 5967 5968 5968 5968 5968 5968 5969 5969 5969 5969 5969 5969 5970 5970 5970 5971 5971 5971 5972
5947 5949 5950 5951 5952 5953 5954 5955 5956 5957 5958 5959 5960 5961 5962 5962 5963 5964 5964 5964 5965 5965 5966 5966 5967 5967 5968 5968 5968 5968 5968 5968 5968 5968 5969 5969 5969 5969 5970 5970 5970 5970
5946 5947 5948 5949 5950 5951 5952 5953 5954 5955 5956 5957 5958 5959 5960 5961 5962 5962 5963 5963 5964 5964 5965 5965 5966 5966 5967 5967 5967 5968 5968 5968 5968 5968 5968 5968 5968 5968 5968 5968 5968 5968
5944 5945 5946 5947 5948 5949 5950 5951 5952 5953 5954 5955 5957 5957 5959 5960 5960 5961 5962 5962 5963 5963 5964 5964 5965 5965 5966 5966 5966 5967 5967 5967 5967 5967 5967 5967 5967 5967 5967 5967 5967 5967
5942 5943 5944 5945 5946 5948 5949 5949 5950 5951 5952 5953 5954 5955 5957 5958 5959 5959 5960 5960 5961 5962 5962 5963 5964 5964 5965 5965 5965 5965 5966 5965 5965 5965 5965 5965 5965 5965 5965 5965 5965 5965
5941 5942 5943 5944 5945 5946 5947 5948 5948 5949 5950 5952 5953 5954 5954 5955 5956 5957 5958 5959 5960 5960 5960 5961 5962 5962 5963 5963 5964 5964 5964 5964 5964 5963 5963 5964 5963 5963 5963 5963 5963 5964
5940 5941 5942 5943 5944 5944 5945 5945 5946 5947 5948 5950 5952 5952 5952 5953 5954 5955 5956 5957 5958 5959 5959 5959 5960 5960 5961 5962 5962 5962 5962 5962 5962 5962 5962 5962 5962 5962 5962 5962 5962 5962
5937 5939 5940 5940 5941 5942 5943 5944 5944 5946 5947 5949 5950 5950 5950 5951 5952 5953 5953 5955 5956 5957 5957 5958 5959 5959 5960 5960 5961 5960 5960 5961 5961 5960 5960 5960 5960 5960 5960 5960 5961 5961
5934 5935 5936 5936 5937 5938 5940 5941 5942 5944 5945 5945 5947 5947 5948 5949 5950 5950 5951 5952 5954 5955 5956 5957 5958 5958 5958 5959 5959 5959 5959 5959 5959 5959 5958 5958 5959 5959 5959 5959 5960 5960
5932 5932 5933 5933 5934 5935 5936 5937 5939 5940 5941 5942 5942 5943 5944 5945 5946 5946 5947 5949 5950 5952 5953 5954 5955 5955 5956 5956 5956 5956 5956 5956 5956 5956 5956 5956 5957 5957 5958 5958 5959 5959
5928 5929 5929 5930 5931 5932 5933 5934 5935 5936 5937 5938 5939 5939 5940 5941 5943 5943 5944 5946 5948 5949 5950 5951 5951 5952 5953 5953 5953 5953 5953 5954 5954 5954 5954 5954 5954 5955 5956 5956 5956 5956
5925 5925 5926 5927 5928 5929 5930 5931 5932 5932 5933 5934 5935 5936 5937 5938 5940 5941 5941 5943 5945 5947 5947 5948 5948 5949 5950 5950 5950 5950 5950 5950 5951 5951 5951 5951 5952 5953 5954 5954 5954 5954
5921 5922 5923 5924 5925 5926 5927 5929 5930 5930 5930 5931 5932 5933 5934 5935 5937 5937 5938 5940 5942 5944 5944 5945 5945 5945 5946 5947 5947 5947 5947 5948 5948 5948 5948 5949 5950 5951 5951 5951 5951 5951
5917 5918 5919 5921 5922 5923 5924 5926 5927 5928 5929 5929 5929 5930 5931 5932 5934 5935 5935 5936 5938 5939 5940 5941 5941 5942 5942 5942 5943 5943 5943 5944 5945 5945 5946 5947 5948 5948 5948 5948 5948 5948
5913 5914 5914 5916 5917 5919 5921 5923 5924 5925 5926 5926 5927 5927 5927 5929 5931 5931 5932 5933 5934 5935 5935 5936 5937 5938 5939 5939 5939 5940 5940 5941 5941 5941 5942 5944 5945 5945 5944 5945 5945 5944
5909 5910 5910 5910 5912 5915 5917 5919 5920 5921 5922 5923 5923 5923 5924 5925 5927 5928 5928 5930 5931 5932 5932 5933 5934 5935 5935 5936 5936 5937 5937 5937 5937 5938 5939 5940 5941 5941 5941 5941 5941 5941
5905 5906 5906 5907 5908 5910 5912 5914 5915 5917 5918 5918 5919 5920 5920 5921 5923 5924 5924 5926 5928 5928 5928 5929 5930 5930 5931 5931 5932 5933 5933 5934 5934 5934 5935 5936 5938 5938 5938 5938 5938 5938
5902 5902 5903 5904 5905 5906 5907 5909 5910 5912 5912 5914 5915 5916 5916 5917 5918 5919 5921 5923 5924 5924 5925 5925 5925 5925 5926 5927 5928 5929 5929 5930 5930 5931 5932 5933 5934 5935 5935 5935 5934 5933
5899 5900 5900 5901 5901 5902 5903 5904 5905 5906 5908 5909 5911 5912 5913 5914 5914 5916 5919 5920 5919 5918 5920 5921 5921 5921 5922 5923 5924 5925 5926 5926 5926 5927 5927 5928 5929 5930 5931 5931 5929 5928